| time (UTC) | temp F | wind direction | speed MPH | gust MPH | rain 1hr in | rain 24hr in | rain mn in | humidity % | barometer mb |
| 20260507152949 | 65 | 187 | 0.0 | 0.0 | 0.00 | 0.44 | 0.44 | 75 | 1014.0 |
| 20260507152445 | 65 | 196 | 0.0 | 1.0 | 0.00 | 0.44 | 0.44 | 76 | 1014.0 |
| 20260507151941 | 66 | 192 | 1.0 | 1.0 | 0.00 | 0.44 | 0.44 | 73 | 1014.1 |
| 20260507151438 | 68 | 180 | 0.0 | 0.0 | 0.00 | 0.44 | 0.44 | 70 | 1014.1 |
| 20260507150935 | 68 | 196 | 0.0 | 0.0 | 0.00 | 0.44 | 0.44 | 71 | 1014.1 |
| 20260507150432 | 68 | 195 | 0.0 | 0.0 | 0.00 | 0.44 | 0.44 | 69 | 1014.2 |
| 20260507145928 | 69 | 197 | 0.0 | 0.0 | 0.00 | 0.44 | 0.44 | 67 | 1014.1 |
| 20260507145424 | 71 | 213 | 0.0 | 0.0 | 0.00 | 0.44 | 0.44 | 65 | 1014.3 |
| 20260507144921 | 70 | 163 | 1.0 | 2.0 | 0.00 | 0.44 | 0.44 | 66 | 1014.4 |
| 20260507144418 | 69 | 193 | 0.0 | 1.0 | 0.00 | 0.44 | 0.44 | 67 | 1014.4 |
| 20260507143915 | 68 | 186 | 0.0 | 0.0 | 0.00 | 0.44 | 0.44 | 69 | 1014.4 |
| 20260507143412 | 69 | 181 | 2.0 | 2.0 | 0.00 | 0.44 | 0.44 | 69 | 1014.2 |
| 20260507142909 | 68 | 195 | 0.0 | 1.0 | 0.00 | 0.44 | 0.44 | 69 | 1014.3 |
| 20260507142404 | 67 | 182 | 1.0 | 1.0 | 0.00 | 0.44 | 0.44 | 71 | 1014.3 |
| 20260507141902 | 68 | 131 | 3.0 | 5.0 | 0.00 | 0.44 | 0.44 | 69 | 1014.4 |
| 20260507141358 | 68 | 200 | 1.0 | 1.0 | 0.00 | 0.44 | 0.44 | 71 | 1014.2 |
| 20260507140855 | 67 | 188 | 0.0 | 0.0 | 0.00 | 0.44 | 0.44 | 71 | 1014.2 |
| 20260507140351 | 69 | 167 | 2.0 | 5.0 | 0.00 | 0.44 | 0.44 | 69 | 1014.1 |
| 20260507135849 | 70 | 185 | 1.0 | 1.0 | 0.00 | 0.44 | 0.44 | 65 | 1014.1 |
| 20260507135346 | 70 | 207 | 0.0 | 1.0 | 0.00 | 0.44 | 0.44 | 67 | 1014.2 |
| 20260507134843 | 69 | 209 | 0.0 | 0.0 | 0.00 | 0.44 | 0.44 | 71 | 1014.0 |
| 20260507134339 | 68 | 197 | 0.0 | 0.0 | 0.00 | 0.44 | 0.44 | 71 | 1014.2 |
| 20260507133835 | 67 | 140 | 3.0 | 5.0 | 0.00 | 0.44 | 0.44 | 73 | 1014.3 |
| 20260507133331 | 66 | 164 | 0.0 | 1.0 | 0.00 | 0.44 | 0.44 | 74 | 1014.2 |
| 20260507132830 | 64 | 183 | 0.0 | 0.0 | 0.00 | 0.44 | 0.44 | 79 | 1014.4 |
| 20260507132326 | 63 | 186 | 1.0 | 2.0 | 0.00 | 0.44 | 0.44 | 79 | 1014.4 |
| 20260507131823 | 63 | 125 | 2.0 | 5.0 | 0.00 | 0.44 | 0.44 | 79 | 1014.1 |
| 20260507131320 | 64 | 200 | 1.0 | 1.0 | 0.00 | 0.44 | 0.44 | 78 | 1014.3 |
| 20260507130817 | 63 | 152 | 0.0 | 1.0 | 0.00 | 0.44 | 0.44 | 79 | 1014.4 |
| 20260507130314 | 64 | 198 | 1.0 | 3.0 | 0.00 | 0.44 | 0.44 | 77 | 1014.4 |
| 20260507125813 | 64 | 186 | 1.0 | 2.0 | 0.00 | 0.44 | 0.44 | 76 | 1014.4 |
| 20260507125310 | 65 | 160 | 3.0 | 5.0 | 0.00 | 0.44 | 0.44 | 75 | 1014.4 |
| 20260507124807 | 65 | 162 | 2.0 | 2.0 | 0.00 | 0.44 | 0.44 | 75 | 1014.5 |
| 20260507124303 | 64 | 160 | 7.0 | 10.0 | 0.00 | 0.44 | 0.44 | 76 | 1014.4 |
| 20260507123802 | 64 | 161 | 1.0 | 3.0 | 0.00 | 0.44 | 0.44 | 77 | 1014.5 |
| 20260507123259 | 63 | 214 | 5.0 | 7.0 | 0.00 | 0.44 | 0.44 | 80 | 1014.2 |
| 20260507122754 | 62 | 155 | 2.0 | 5.0 | 0.00 | 0.44 | 0.44 | 80 | 1014.4 |
| 20260507122250 | 63 | 180 | 3.0 | 5.0 | 0.00 | 0.44 | 0.44 | 80 | 1014.2 |
| 20260507121746 | 64 | 169 | 3.0 | 6.0 | 0.00 | 0.44 | 0.44 | 78 | 1014.5 |
| 20260507121242 | 64 | 205 | 4.0 | 6.0 | 0.00 | 0.44 | 0.44 | 78 | 1014.6 |
| 20260507120738 | 64 | 178 | 2.0 | 5.0 | 0.00 | 0.44 | 0.44 | 78 | 1014.5 |
| 20260507120235 | 64 | 161 | 2.0 | 3.0 | 0.00 | 0.44 | 0.44 | 79 | 1014.6 |
| 20260507115731 | 64 | 184 | 2.0 | 3.0 | 0.00 | 0.44 | 0.44 | 80 | 1014.6 |
| 20260507115222 | 62 | 141 | 4.0 | 6.0 | 0.00 | 0.44 | 0.44 | 83 | 1014.5 |
| 20260507114717 | 62 | 126 | 5.0 | 8.0 | 0.00 | 0.44 | 0.44 | 82 | 1014.5 |
| 20260507114215 | 62 | 159 | 3.0 | 5.0 | 0.00 | 0.44 | 0.44 | 83 | 1014.6 |
| 20260507113712 | 62 | 141 | 3.0 | 8.0 | 0.00 | 0.44 | 0.44 | 82 | 1014.6 |
| 20260507113209 | 62 | 148 | 1.0 | 2.0 | 0.00 | 0.44 | 0.44 | 81 | 1014.7 |
| 20260507112707 | 64 | 177 | 5.0 | 7.0 | 0.00 | 0.44 | 0.44 | 79 | 1014.5 |
| 20260507112203 | 64 | 150 | 4.0 | 6.0 | 0.00 | 0.44 | 0.44 | 79 | 1014.5 |
| 20260507111701 | 64 | 240 | 5.0 | 7.0 | 0.00 | 0.44 | 0.44 | 81 | 1014.5 |
| 20260507111158 | 63 | 162 | 1.0 | 2.0 | 0.00 | 0.44 | 0.44 | 82 | 1014.4 |
| 20260507110653 | 62 | 136 | 1.0 | 5.0 | 0.00 | 0.44 | 0.44 | 83 | 1014.6 |
| 20260507110151 | 63 | 156 | 6.0 | 9.0 | 0.00 | 0.44 | 0.44 | 81 | 1014.5 |
| 20260507105647 | 62 | 197 | 2.0 | 2.0 | 0.00 | 0.44 | 0.44 | 84 | 1014.6 |
| 20260507105143 | 62 | 132 | 3.0 | 6.0 | 0.00 | 0.44 | 0.44 | 83 | 1014.6 |
| 20260507104641 | 63 | 186 | 3.0 | 5.0 | 0.00 | 0.44 | 0.44 | 82 | 1014.6 |
| 20260507104137 | 63 | 169 | 2.0 | 2.0 | 0.00 | 0.44 | 0.44 | 84 | 1014.8 |
| 20260507103633 | 62 | 221 | 3.0 | 5.0 | 0.00 | 0.44 | 0.44 | 84 | 1014.6 |
| 20260507103130 | 62 | 179 | 3.0 | 5.0 | 0.00 | 0.44 | 0.44 | 85 | 1014.4 |
| 20260507102626 | 61 | 117 | 4.0 | 6.0 | 0.00 | 0.44 | 0.44 | 86 | 1014.6 |
| 20260507102123 | 61 | 139 | 3.0 | 5.0 | 0.00 | 0.44 | 0.44 | 88 | 1014.7 |
| 20260507101619 | 60 | 129 | 6.0 | 9.0 | 0.00 | 0.44 | 0.44 | 88 | 1014.5 |
| 20260507101115 | 60 | 171 | 5.0 | 8.0 | 0.00 | 0.44 | 0.44 | 88 | 1014.6 |
| 20260507100612 | 60 | 156 | 5.0 | 7.0 | 0.00 | 0.44 | 0.44 | 88 | 1014.6 |
| 20260507100110 | 60 | 172 | 5.0 | 8.0 | 0.00 | 0.44 | 0.44 | 88 | 1014.5 |
| 20260507095608 | 60 | 183 | 2.0 | 2.0 | 0.00 | 0.44 | 0.44 | 89 | 1014.6 |
| 20260507095104 | 60 | 147 | 5.0 | 7.0 | 0.00 | 0.44 | 0.44 | 89 | 1014.4 |
| 20260507094600 | 60 | 169 | 4.0 | 5.0 | 0.00 | 0.44 | 0.44 | 89 | 1014.7 |
| 20260507094057 | 60 | 152 | 3.0 | 6.0 | 0.00 | 0.44 | 0.44 | 90 | 1014.3 |
| 20260507093555 | 59 | 205 | 1.0 | 2.0 | 0.00 | 0.44 | 0.44 | 91 | 1014.3 |
| 20260507093054 | 59 | 182 | 2.0 | 3.0 | 0.00 | 0.44 | 0.44 | 92 | 1014.3 |
| 20260507092549 | 59 | 124 | 3.0 | 3.0 | 0.00 | 0.44 | 0.44 | 91 | 1014.3 |
| 20260507092046 | 59 | 127 | 3.0 | 5.0 | 0.00 | 0.44 | 0.44 | 92 | 1014.3 |
| 20260507091543 | 59 | 132 | 3.0 | 6.0 | 0.00 | 0.44 | 0.44 | 93 | 1014.3 |
| 20260507091039 | 59 | 154 | 2.0 | 6.0 | 0.00 | 0.44 | 0.44 | 93 | 1014.2 |
| 20260507090535 | 59 | 158 | 3.0 | 5.0 | 0.00 | 0.44 | 0.44 | 93 | 1014.2 |
| 20260507090032 | 59 | 158 | 5.0 | 8.0 | 0.00 | 0.44 | 0.44 | 94 | 1014.3 |
| 20260507085529 | 59 | 166 | 2.0 | 3.0 | 0.00 | 0.44 | 0.44 | 94 | 1014.2 |
| 20260507085026 | 59 | 176 | 3.0 | 3.0 | 0.00 | 0.44 | 0.44 | 94 | 1014.4 |
| 20260507084522 | 58 | 144 | 2.0 | 3.0 | 0.00 | 0.44 | 0.44 | 94 | 1014.4 |
| 20260507084020 | 58 | 195 | 2.0 | 3.0 | 0.00 | 0.44 | 0.44 | 95 | 1014.3 |
| 20260507083516 | 58 | 182 | 2.0 | 3.0 | 0.00 | 0.44 | 0.44 | 95 | 1014.2 |
| 20260507083013 | 58 | 148 | 3.0 | 5.0 | 0.00 | 0.44 | 0.44 | 95 | 1014.4 |
| 20260507082509 | 58 | 182 | 2.0 | 5.0 | 0.00 | 0.44 | 0.44 | 95 | 1014.4 |
| 20260507082005 | 58 | 173 | 3.0 | 3.0 | 0.00 | 0.44 | 0.44 | 95 | 1014.3 |
| 20260507081502 | 58 | 209 | 0.0 | 0.0 | 0.00 | 0.44 | 0.44 | 96 | 1014.0 |
| 20260507080959 | 58 | 163 | 4.0 | 5.0 | 0.00 | 0.44 | 0.44 | 96 | 1014.3 |
| 20260507080454 | 58 | 228 | 1.0 | 2.0 | 0.00 | 0.44 | 0.44 | 96 | 1014.3 |
| 20260507075950 | 58 | 136 | 1.0 | 2.0 | 0.00 | 0.44 | 0.44 | 96 | 1014.2 |
| 20260507075446 | 58 | 165 | 2.0 | 2.0 | 0.00 | 0.44 | 0.44 | 96 | 1014.3 |
| 20260507074943 | 58 | 177 | 1.0 | 2.0 | 0.00 | 0.44 | 0.44 | 96 | 1014.1 |
| 20260507074440 | 58 | 171 | 3.0 | 3.0 | 0.00 | 0.44 | 0.44 | 96 | 1014.1 |
| 20260507073938 | 57 | 119 | 3.0 | 5.0 | 0.00 | 0.44 | 0.44 | 96 | 1014.2 |
| 20260507073434 | 57 | 196 | 2.0 | 3.0 | 0.00 | 0.44 | 0.44 | 96 | 1014.0 |
| 20260507072931 | 57 | 176 | 1.0 | 2.0 | 0.00 | 0.44 | 0.44 | 96 | 1013.8 |
| 20260507072428 | 57 | 137 | 4.0 | 6.0 | 0.00 | 0.44 | 0.44 | 96 | 1014.0 |
| 20260507071926 | 57 | 191 | 3.0 | 5.0 | 0.00 | 0.44 | 0.44 | 96 | 1014.0 |
| 20260507071422 | 57 | 138 | 2.0 | 5.0 | 0.00 | 0.44 | 0.44 | 96 | 1013.8 |
| 20260507070919 | 57 | 143 | 2.0 | 2.0 | 0.00 | 0.44 | 0.44 | 96 | 1013.9 |
| 20260507070416 | 57 | 176 | 4.0 | 5.0 | 0.00 | 0.44 | 0.44 | 96 | 1013.8 |
| 20260507065913 | 57 | 190 | 2.0 | 2.0 | 0.00 | 0.44 | 0.44 | 96 | 1013.6 |
| 20260507065409 | 57 | 148 | 1.0 | 2.0 | 0.00 | 0.44 | 0.44 | 96 | 1013.6 |
| 20260507064907 | 57 | 160 | 3.0 | 5.0 | 0.00 | 0.44 | 0.44 | 96 | 1013.3 |
| 20260507064404 | 57 | 168 | 2.0 | 3.0 | 0.00 | 0.44 | 0.44 | 96 | 1013.3 |
| 20260507063857 | 57 | 193 | 4.0 | 6.0 | 0.00 | 0.44 | 0.44 | 96 | 1013.4 |
| 20260507063354 | 57 | 126 | 4.0 | 5.0 | 0.00 | 0.44 | 0.44 | 96 | 1013.4 |
| 20260507062851 | 57 | 163 | 4.0 | 5.0 | 0.00 | 0.44 | 0.44 | 96 | 1013.6 |
| 20260507062347 | 57 | 172 | 5.0 | 7.0 | 0.00 | 0.44 | 0.44 | 96 | 1013.3 |
| 20260507061845 | 57 | 184 | 1.0 | 2.0 | 0.00 | 0.44 | 0.44 | 96 | 1013.4 |
| 20260507061343 | 57 | 146 | 4.0 | 5.0 | 0.00 | 0.44 | 0.44 | 96 | 1013.2 |
| 20260507060841 | 57 | 177 | 2.0 | 3.0 | 0.00 | 0.44 | 0.44 | 96 | 1013.3 |
| 20260507060338 | 57 | 154 | 4.0 | 7.0 | 0.00 | 0.44 | 0.44 | 96 | 1013.0 |
| 20260507055835 | 57 | 173 | 3.0 | 3.0 | 0.05 | 0.44 | 0.44 | 96 | 1013.3 |
| 20260507055329 | 57 | 159 | 1.0 | 2.0 | 0.05 | 0.44 | 0.44 | 96 | 1013.3 |
| 20260507054827 | 57 | 150 | 3.0 | 5.0 | 0.00 | 0.43 | 0.43 | 96 | 1013.3 |
| 20260507054323 | 57 | 164 | 3.0 | 5.0 | 0.07 | 0.43 | 0.43 | 96 | 1013.2 |
| 20260507053820 | 57 | 188 | 3.0 | 5.0 | 0.07 | 0.43 | 0.43 | 96 | 1013.1 |
| 20260507053318 | 57 | 190 | 1.0 | 2.0 | 0.00 | 0.42 | 0.42 | 96 | 1013.2 |
| 20260507052817 | 57 | 179 | 1.0 | 1.0 | 0.00 | 0.42 | 0.42 | 96 | 1013.2 |
| 20260507052313 | 57 | 224 | 1.0 | 1.0 | 0.00 | 0.42 | 0.42 | 96 | 1013.2 |
| 20260507051811 | 57 | 173 | 2.0 | 2.0 | 0.00 | 0.42 | 0.42 | 96 | 1013.2 |
| 20260507051308 | 57 | 152 | 0.0 | 1.0 | 0.05 | 0.42 | 0.42 | 96 | 1013.0 |
| 20260507050804 | 57 | 172 | 1.0 | 2.0 | 0.05 | 0.42 | 0.42 | 96 | 1013.1 |
| 20260507050301 | 57 | 166 | 0.0 | 0.0 | 0.00 | 0.41 | 0.41 | 96 | 1012.9 |
| 20260507045758 | 57 | 177 | 0.0 | 1.0 | 0.00 | 0.41 | 0.41 | 96 | 1013.0 |
| 20260507045254 | 57 | 189 | 0.0 | 0.0 | 0.00 | 0.41 | 0.41 | 95 | 1012.8 |
| 20260507044751 | 57 | 176 | 0.0 | 0.0 | 0.24 | 0.41 | 0.41 | 95 | 1013.1 |
| 20260507044248 | 57 | 203 | 3.0 | 3.0 | 0.31 | 0.41 | 0.41 | 95 | 1012.7 |
| 20260507043744 | 57 | 150 | 1.0 | 1.0 | 0.24 | 0.39 | 0.39 | 95 | 1013.0 |
| 20260507043241 | 57 | 180 | 4.0 | 7.0 | 0.12 | 0.36 | 0.36 | 95 | 1012.6 |
| 20260507042737 | 57 | 189 | 1.0 | 2.0 | 0.07 | 0.35 | 0.35 | 95 | 1012.7 |
| 20260507042232 | 57 | 144 | 3.0 | 3.0 | 0.12 | 0.34 | 0.34 | 95 | 1012.4 |
| 20260507041730 | 57 | 195 | 2.0 | 3.0 | 0.12 | 0.34 | 0.34 | 95 | 1012.6 |
| 20260507041226 | 57 | 137 | 2.0 | 3.0 | 0.00 | 0.32 | 0.32 | 95 | 1012.4 |
| 20260507040724 | 57 | 188 | 1.0 | 3.0 | 0.12 | 0.32 | 0.32 | 95 | 1012.6 |
| 20260507040219 | 57 | 171 | 2.0 | 2.0 | 0.12 | 0.32 | 0.32 | 95 | 1012.5 |
| 20260507035716 | 57 | 153 | 4.0 | 7.0 | 0.00 | 0.30 | 0.30 | 94 | 1012.3 |
| 20260507035211 | 57 | 157 | 3.0 | 6.0 | 0.07 | 0.30 | 0.30 | 94 | 1012.5 |
| 20260507034709 | 57 | 167 | 2.0 | 3.0 | 0.07 | 0.30 | 0.30 | 94 | 1012.4 |
| 20260507034206 | 57 | 155 | 2.0 | 3.0 | 0.05 | 0.29 | 0.29 | 94 | 1012.6 |
| 20260507033704 | 57 | 190 | 2.0 | 2.0 | 0.05 | 0.29 | 0.29 | 94 | 1012.6 |
| 20260507033201 | 57 | 180 | 5.0 | 8.0 | 0.00 | 0.28 | 0.28 | 93 | 1012.5 |
| 20260507032659 | 57 | 203 | 2.0 | 2.0 | 0.00 | 0.28 | 0.28 | 93 | 1012.6 |
| 20260507032154 | 57 | 168 | 1.0 | 2.0 | 0.00 | 0.28 | 0.28 | 93 | 1012.6 |
| 20260507031651 | 57 | 162 | 0.0 | 1.0 | 0.00 | 0.28 | 0.28 | 93 | 1012.6 |
| 20260507031148 | 57 | 155 | 4.0 | 7.0 | 0.54 | 0.28 | 0.28 | 92 | 1012.7 |
| 20260507030644 | 58 | 154 | 2.0 | 3.0 | 1.09 | 0.28 | 0.28 | 92 | 1012.8 |
| 20260507030143 | 58 | 173 | 1.0 | 2.0 | 1.09 | 0.22 | 0.22 | 91 | 1012.8 |
| 20260507025639 | 58 | 142 | 0.0 | 1.0 | 0.54 | 0.09 | 0.09 | 90 | 1012.8 |
| 20260507025136 | 58 | 183 | 0.0 | 0.0 | 0.17 | 0.03 | 0.03 | 90 | 1012.5 |
| 20260507024634 | 58 | 173 | 0.0 | 0.0 | 0.00 | 0.00 | 0.00 | 90 | 1012.6 |
| 20260507024131 | 58 | 172 | 0.0 | 0.0 | 0.00 | 0.00 | 0.00 | 89 | 1012.7 |
| 20260507023626 | 58 | 177 | 0.0 | 0.0 | 0.00 | 0.00 | 0.00 | 89 | 1012.5 |
| 20260507023125 | 58 | 195 | 1.0 | 1.0 | 0.00 | 0.00 | 0.00 | 89 | 1012.2 |
| 20260507022621 | 58 | 151 | 2.0 | 3.0 | 0.00 | 0.00 | 0.00 | 88 | 1012.2 |
| 20260507022116 | 58 | 178 | 0.0 | 1.0 | 0.00 | 0.00 | 0.00 | 88 | 1012.1 |
| 20260507021613 | 58 | 173 | 0.0 | 1.0 | 0.00 | 0.00 | 0.00 | 87 | 1012.2 |
| 20260507021109 | 59 | 147 | 0.0 | 1.0 | 0.00 | 0.00 | 0.00 | 87 | 1012.3 |
| 20260507020607 | 59 | 174 | 3.0 | 5.0 | 0.00 | 0.00 | 0.00 | 86 | 1012.3 |
| 20260507020103 | 59 | 112 | 4.0 | 6.0 | 0.00 | 0.00 | 0.00 | 85 | 1012.4 |
| 20260507015602 | 59 | 153 | 2.0 | 3.0 | 0.00 | 0.00 | 0.00 | 84 | 1012.5 |
| 20260507015059 | 59 | 136 | 4.0 | 8.0 | 0.00 | 0.00 | 0.00 | 84 | 1012.6 |
| 20260507014555 | 59 | 196 | 3.0 | 7.0 | 0.00 | 0.00 | 0.00 | 83 | 1012.4 |
| 20260507014051 | 59 | 160 | 1.0 | 1.0 | 0.00 | 0.00 | 0.00 | 82 | 1012.5 |
| 20260507013548 | 59 | 128 | 4.0 | 7.0 | 0.00 | 0.00 | 0.00 | 82 | 1012.3 |
| 20260507013045 | 59 | 190 | 3.0 | 6.0 | 0.00 | 0.00 | 0.00 | 81 | 1012.5 |
| 20260507012542 | 60 | 146 | 1.0 | 3.0 | 0.00 | 0.00 | 0.00 | 80 | 1012.3 |
| 20260507012038 | 60 | 159 | 2.0 | 3.0 | 0.00 | 0.00 | 0.00 | 80 | 1012.2 |
| 20260507011535 | 60 | 147 | 7.0 | 9.0 | 0.00 | 0.00 | 0.00 | 79 | 1012.2 |
| 20260507011026 | 60 | 194 | 5.0 | 8.0 | 0.00 | 0.00 | 0.00 | 79 | 1012.2 |
| 20260507010521 | 60 | 140 | 4.0 | 6.0 | 0.00 | 0.00 | 0.00 | 78 | 1012.1 |
| 20260507010018 | 60 | 187 | 3.0 | 6.0 | 0.00 | 0.00 | 0.00 | 78 | 1012.4 |
| 20260507005515 | 60 | 182 | 2.0 | 2.0 | 0.00 | 0.00 | 0.00 | 77 | 1012.2 |
| 20260507005011 | 60 | 150 | 3.0 | 3.0 | 0.00 | 0.00 | 0.00 | 78 | 1012.1 |
| 20260507004508 | 60 | 129 | 3.0 | 3.0 | 0.00 | 0.00 | 0.00 | 77 | 1012.2 |
| 20260507004006 | 60 | 178 | 1.0 | 1.0 | 0.00 | 0.00 | 0.00 | 76 | 1012.2 |
| 20260507003501 | 60 | 148 | 5.0 | 6.0 | 0.00 | 0.00 | 0.00 | 76 | 1012.2 |
| 20260507002955 | 60 | 164 | 2.0 | 5.0 | 0.00 | 0.00 | 0.00 | 75 | 1012.4 |
| 20260507002452 | 60 | 186 | 2.0 | 3.0 | 0.00 | 0.00 | 0.00 | 74 | 1012.4 |
| 20260507001944 | 60 | 189 | 4.0 | 7.0 | 0.00 | 0.00 | 0.00 | 74 | 1012.6 |
| 20260507001440 | 60 | 141 | 3.0 | 3.0 | 0.00 | 0.00 | 0.00 | 73 | 1012.5 |
| 20260507000938 | 60 | 166 | 4.0 | 5.0 | 0.00 | 0.00 | 0.00 | 74 | 1012.4 |
| 20260507000435 | 60 | 136 | 3.0 | 3.0 | 0.00 | 0.00 | 0.00 | 74 | 1012.5 |
| 20260506235929 | 60 | 136 | 6.0 | 11.0 | 0.00 | 0.00 | 0.00 | 75 | 1012.5 |
| 20260506235427 | 60 | 190 | 3.0 | 6.0 | 0.00 | 0.00 | 0.00 | 75 | 1012.7 |
| 20260506234921 | 60 | 194 | 2.0 | 2.0 | 0.00 | 0.00 | 0.00 | 75 | 1012.6 |
| 20260506234420 | 60 | 144 | 3.0 | 6.0 | 0.00 | 0.00 | 0.00 | 75 | 1012.7 |
| 20260506233917 | 60 | 182 | 5.0 | 7.0 | 0.00 | 0.00 | 0.00 | 75 | 1012.7 |
| 20260506233414 | 60 | 120 | 5.0 | 7.0 | 0.00 | 0.00 | 0.00 | 75 | 1012.6 |
| 20260506232910 | 60 | 146 | 3.0 | 6.0 | 0.00 | 0.00 | 0.00 | 75 | 1012.9 |
| 20260506232406 | 60 | 173 | 5.0 | 8.0 | 0.00 | 0.00 | 0.00 | 75 | 1012.7 |
| 20260506231902 | 60 | 189 | 5.0 | 7.0 | 0.00 | 0.00 | 0.00 | 76 | 1012.8 |
| 20260506231400 | 60 | 150 | 2.0 | 5.0 | 0.00 | 0.00 | 0.00 | 76 | 1013.0 |
| 20260506230857 | 60 | 135 | 2.0 | 2.0 | 0.00 | 0.00 | 0.00 | 75 | 1013.0 |
| 20260506230354 | 60 | 178 | 3.0 | 5.0 | 0.00 | 0.00 | 0.00 | 75 | 1012.9 |
| 20260506225850 | 60 | 184 | 3.0 | 6.0 | 0.00 | 0.00 | 0.00 | 75 | 1012.8 |
| 20260506225348 | 60 | 154 | 5.0 | 7.0 | 0.00 | 0.00 | 0.00 | 74 | 1012.6 |
| 20260506224844 | 60 | 183 | 5.0 | 14.0 | 0.00 | 0.00 | 0.00 | 75 | 1012.7 |
| 20260506224342 | 60 | 214 | 3.0 | 5.0 | 0.00 | 0.00 | 0.00 | 75 | 1012.8 |
| 20260506223838 | 60 | 228 | 4.0 | 7.0 | 0.00 | 0.00 | 0.00 | 76 | 1012.8 |
| 20260506223333 | 60 | 164 | 3.0 | 5.0 | 0.00 | 0.00 | 0.00 | 76 | 1013.0 |
| 20260506222831 | 60 | 178 | 6.0 | 8.0 | 0.00 | 0.00 | 0.00 | 76 | 1012.9 |
| 20260506222326 | 60 | 154 | 4.0 | 6.0 | 0.00 | 0.00 | 0.00 | 76 | 1012.9 |
| 20260506221825 | 60 | 158 | 4.0 | 7.0 | 0.00 | 0.00 | 0.00 | 75 | 1012.9 |
| 20260506221322 | 60 | 149 | 5.0 | 7.0 | 0.00 | 0.00 | 0.00 | 75 | 1012.7 |
| 20260506220819 | 60 | 131 | 8.0 | 10.0 | 0.00 | 0.00 | 0.00 | 74 | 1012.7 |
| 20260506220314 | 60 | 128 | 8.0 | 13.0 | 0.00 | 0.00 | 0.00 | 74 | 1012.9 |
| 20260506215811 | 60 | 169 | 4.0 | 5.0 | 0.00 | 0.38 | 0.38 | 74 | 1012.8 |
| 20260506215307 | 60 | 178 | 3.0 | 6.0 | 0.00 | 0.38 | 0.38 | 73 | 1012.7 |
| 20260506214803 | 60 | 117 | 6.0 | 8.0 | 0.00 | 0.38 | 0.38 | 73 | 1012.6 |
| 20260506214300 | 60 | 125 | 7.0 | 15.0 | 0.00 | 0.38 | 0.38 | 74 | 1012.6 |
| 20260506213758 | 60 | 123 | 8.0 | 13.0 | 0.00 | 0.38 | 0.38 | 76 | 1012.8 |
| 20260506213254 | 60 | 207 | 3.0 | 5.0 | 0.00 | 0.38 | 0.38 | 76 | 1012.8 |
| 20260506212752 | 60 | 191 | 8.0 | 11.0 | 0.00 | 0.38 | 0.38 | 76 | 1012.7 |
| 20260506212248 | 60 | 148 | 5.0 | 7.0 | 0.00 | 0.38 | 0.38 | 77 | 1012.8 |
| 20260506211743 | 60 | 117 | 3.0 | 6.0 | 0.00 | 0.38 | 0.38 | 78 | 1012.7 |
| 20260506211240 | 60 | 209 | 5.0 | 6.0 | 0.00 | 0.38 | 0.38 | 77 | 1012.4 |
| 20260506210737 | 59 | 156 | 4.0 | 7.0 | 0.00 | 0.38 | 0.38 | 78 | 1012.8 |
| 20260506210233 | 59 | 168 | 7.0 | 9.0 | 0.00 | 0.38 | 0.38 | 79 | 1012.6 |
| 20260506205730 | 59 | 151 | 7.0 | 11.0 | 0.00 | 0.38 | 0.38 | 80 | 1012.6 |
| 20260506205225 | 59 | 194 | 3.0 | 5.0 | 0.00 | 0.38 | 0.38 | 79 | 1012.6 |
| 20260506204718 | 59 | 118 | 5.0 | 8.0 | 0.00 | 0.38 | 0.38 | 80 | 1012.5 |
| 20260506204215 | 59 | 152 | 5.0 | 8.0 | 0.00 | 0.38 | 0.38 | 79 | 1012.3 |
| 20260506203713 | 59 | 178 | 4.0 | 7.0 | 0.00 | 0.38 | 0.38 | 79 | 1012.5 |
| 20260506203210 | 59 | 197 | 6.0 | 11.0 | 0.00 | 0.38 | 0.38 | 80 | 1012.4 |
| 20260506202708 | 60 | 148 | 3.0 | 5.0 | 0.00 | 0.38 | 0.38 | 80 | 1012.4 |
| 20260506202203 | 60 | 119 | 6.0 | 11.0 | 0.00 | 0.38 | 0.38 | 80 | 1012.6 |
| 20260506201701 | 59 | 177 | 7.0 | 13.0 | 0.00 | 0.38 | 0.38 | 80 | 1012.4 |
| 20260506201156 | 59 | 191 | 3.0 | 3.0 | 0.00 | 0.38 | 0.38 | 79 | 1012.4 |
| 20260506200654 | 59 | 155 | 6.0 | 9.0 | 0.00 | 0.38 | 0.38 | 80 | 1012.5 |
| 20260506200150 | 59 | 121 | 9.0 | 11.0 | 0.00 | 0.38 | 0.38 | 80 | 1012.3 |
| 20260506195647 | 60 | 188 | 4.0 | 7.0 | 0.00 | 0.38 | 0.38 | 80 | 1012.2 |
| 20260506195143 | 60 | 135 | 9.0 | 14.0 | 0.00 | 0.38 | 0.38 | 81 | 1012.2 |
| 20260506194641 | 60 | 185 | 9.0 | 13.0 | 0.00 | 0.38 | 0.38 | 81 | 1012.1 |
| 20260506194137 | 60 | 149 | 3.0 | 6.0 | 0.00 | 0.38 | 0.38 | 81 | 1012.1 |
| 20260506193635 | 60 | 113 | 5.0 | 8.0 | 0.00 | 0.38 | 0.38 | 82 | 1012.3 |
| 20260506193132 | 60 | 205 | 6.0 | 9.0 | 0.00 | 0.38 | 0.38 | 82 | 1012.1 |
| 20260506192628 | 60 | 175 | 6.0 | 9.0 | 0.00 | 0.38 | 0.38 | 83 | 1012.1 |
| 20260506192124 | 60 | 241 | 7.0 | 10.0 | 0.00 | 0.38 | 0.38 | 83 | 1012.1 |
| 20260506191621 | 60 | 144 | 5.0 | 8.0 | 0.00 | 0.38 | 0.38 | 83 | 1012.2 |
| 20260506191117 | 60 | 164 | 6.0 | 8.0 | 0.00 | 0.38 | 0.38 | 84 | 1012.2 |
| 20260506190615 | 60 | 156 | 4.0 | 7.0 | 0.00 | 0.38 | 0.38 | 84 | 1012.2 |
| 20260506190111 | 60 | 130 | 4.0 | 5.0 | 0.00 | 0.38 | 0.38 | 83 | 1011.9 |
| 20260506185609 | 60 | 221 | 6.0 | 9.0 | 0.00 | 0.38 | 0.38 | 84 | 1011.9 |
| 20260506185105 | 60 | 118 | 7.0 | 10.0 | 0.00 | 0.38 | 0.38 | 84 | 1011.8 |
| 20260506184602 | 60 | 153 | 5.0 | 7.0 | 0.00 | 0.38 | 0.38 | 84 | 1011.7 |
| 20260506184100 | 60 | 156 | 7.0 | 13.0 | 0.00 | 0.38 | 0.38 | 84 | 1011.6 |
| 20260506183556 | 60 | 152 | 9.0 | 11.0 | 0.00 | 0.38 | 0.38 | 85 | 1011.8 |
| 20260506183052 | 60 | 157 | 10.0 | 14.0 | 0.00 | 0.38 | 0.38 | 85 | 1011.6 |
| 20260506182550 | 60 | 167 | 7.0 | 10.0 | 0.00 | 0.38 | 0.38 | 86 | 1011.3 |
| 20260506182047 | 60 | 192 | 6.0 | 9.0 | 0.00 | 0.38 | 0.38 | 86 | 1011.7 |
| 20260506181545 | 60 | 191 | 3.0 | 7.0 | 0.00 | 0.38 | 0.38 | 86 | 1011.4 |
| 20260506181041 | 60 | 196 | 7.0 | 9.0 | 0.00 | 0.38 | 0.38 | 87 | 1011.2 |
| 20260506180538 | 60 | 134 | 3.0 | 5.0 | 0.00 | 0.38 | 0.38 | 87 | 1011.3 |
| 20260506180035 | 60 | 162 | 6.0 | 8.0 | 0.00 | 0.38 | 0.38 | 88 | 1011.3 |
| 20260506175531 | 60 | 257 | 7.0 | 13.0 | 0.00 | 0.38 | 0.38 | 87 | 1011.3 |
| 20260506175027 | 60 | 131 | 10.0 | 14.0 | 0.00 | 0.38 | 0.38 | 87 | 1011.7 |
| 20260506174526 | 60 | 173 | 3.0 | 5.0 | 0.00 | 0.38 | 0.38 | 88 | 1011.3 |
| 20260506174022 | 60 | 155 | 7.0 | 10.0 | 0.00 | 0.38 | 0.38 | 88 | 1011.3 |
| 20260506173520 | 60 | 143 | 7.0 | 13.0 | 0.00 | 0.38 | 0.38 | 88 | 1011.7 |
| 20260506173017 | 60 | 150 | 9.0 | 13.0 | 0.00 | 0.38 | 0.38 | 88 | 1011.8 |
| 20260506172514 | 60 | 189 | 4.0 | 7.0 | 0.00 | 0.38 | 0.38 | 89 | 1011.4 |
| 20260506172010 | 60 | 136 | 4.0 | 5.0 | 0.00 | 0.38 | 0.38 | 89 | 1011.4 |
| 20260506171508 | 60 | 144 | 5.0 | 8.0 | 0.00 | 0.38 | 0.38 | 90 | 1011.8 |
| 20260506171005 | 60 | 186 | 6.0 | 8.0 | 0.00 | 0.38 | 0.38 | 90 | 1011.4 |
| 20260506170501 | 60 | 130 | 4.0 | 7.0 | 0.00 | 0.38 | 0.38 | 90 | 1011.4 |
| 20260506165954 | 60 | 148 | 5.0 | 9.0 | 0.00 | 0.38 | 0.38 | 90 | 1011.6 |
| 20260506165452 | 60 | 191 | 4.0 | 7.0 | 0.00 | 0.38 | 0.38 | 90 | 1011.6 |
| 20260506164942 | 60 | 150 | 6.0 | 8.0 | 0.00 | 0.38 | 0.38 | 90 | 1011.7 |
| 20260506164439 | 60 | 213 | 5.0 | 7.0 | 0.00 | 0.38 | 0.38 | 90 | 1011.7 |
| 20260506163937 | 60 | 159 | 3.0 | 6.0 | 0.00 | 0.38 | 0.38 | 90 | 1011.6 |
| 20260506163432 | 60 | 118 | 2.0 | 2.0 | 0.00 | 0.38 | 0.38 | 90 | 1011.7 |
| 20260506162927 | 60 | 184 | 5.0 | 7.0 | 0.00 | 0.38 | 0.38 | 90 | 1011.6 |
| 20260506162424 | 60 | 163 | 5.0 | 8.0 | 0.00 | 0.38 | 0.38 | 90 | 1011.7 |
| 20260506161921 | 60 | 161 | 3.0 | 6.0 | 0.00 | 0.38 | 0.38 | 90 | 1011.7 |
| 20260506161419 | 60 | 221 | 2.0 | 2.0 | 0.00 | 0.38 | 0.38 | 90 | 1011.7 |
| 20260506160911 | 61 | 213 | 2.0 | 2.0 | 0.00 | 0.38 | 0.38 | 90 | 1011.9 |
| 20260506160408 | 61 | 157 | 4.0 | 7.0 | 0.00 | 0.38 | 0.38 | 89 | 1011.7 |
| 20260506155906 | 61 | 168 | 3.0 | 7.0 | 0.00 | 0.38 | 0.38 | 89 | 1011.7 |
| 20260506155403 | 61 | 155 | 6.0 | 9.0 | 0.00 | 0.38 | 0.38 | 89 | 1011.7 |
| 20260506153525 | 61 | 175 | 2.0 | 3.0 | 0.00 | 0.38 | 0.38 | 88 | 1011.8 |